TimeCDT,TemperatureF,Dew PointF,Humidity,Sea Level PressureIn,VisibilityMPH,Wind Direction,Wind SpeedMPH,Gust SpeedMPH,PrecipitationIn,Events,Conditions,WindDirDegrees,DateUTC
12:55 AM,53.6,46.4,77,29.90,10.0,NW,4.6,-,N/A,,Mostly Cloudy,320,2013-11-02 05:55:00
1:55 AM,53.6,46.4,77,29.92,10.0,Calm,Calm,-,N/A,,Scattered Clouds,0,2013-11-02 06:55:00
2:55 AM,51.8,44.6,76,29.93,10.0,NW,4.6,-,N/A,,Clear,310,2013-11-02 07:55:00
3:15 AM,51.8,44.6,76,29.93,10.0,NW,5.8,-,N/A,,Clear,320,2013-11-02 08:15:00
3:35 AM,51.8,44.6,76,29.93,10.0,NW,3.5,-,N/A,,Clear,320,2013-11-02 08:35:00
3:55 AM,51.8,44.6,76,29.94,10.0,Calm,Calm,-,N/A,,Clear,0,2013-11-02 08:55:00
4:15 AM,48.2,44.6,87,29.94,10.0,West,3.5,-,N/A,,Clear,280,2013-11-02 09:15:00
4:35 AM,46.4,44.6,93,29.95,10.0,WNW,4.6,-,N/A,,Clear,290,2013-11-02 09:35:00
4:55 AM,48.2,44.6,87,29.95,10.0,WNW,3.5,-,N/A,,Clear,290,2013-11-02 09:55:00
5:15 AM,48.2,44.6,87,29.95,10.0,West,3.5,-,N/A,,Clear,270,2013-11-02 10:15:00
5:35 AM,46.4,44.6,93,29.96,10.0,West,3.5,-,N/A,,Clear,260,2013-11-02 10:35:00
5:55 AM,46.4,44.6,93,29.97,10.0,West,4.6,-,N/A,,Clear,270,2013-11-02 10:55:00
6:55 AM,46.4,44.6,93,29.99,10.0,WSW,3.5,-,N/A,,Clear,250,2013-11-02 11:55:00
7:55 AM,48.2,44.6,87,30.02,10.0,West,4.6,-,N/A,,Partly Cloudy,280,2013-11-02 12:55:00
8:55 AM,51.8,44.6,76,30.03,10.0,WNW,9.2,-,N/A,,Partly Cloudy,290,2013-11-02 13:55:00
9:55 AM,55.4,44.6,67,30.05,10.0,NW,11.5,-,N/A,,Partly Cloudy,310,2013-11-02 14:55:00
10:55 AM,57.2,44.6,63,30.06,10.0,NW,11.5,-,N/A,,Partly Cloudy,310,2013-11-02 15:55:00
12:55 PM,60.8,44.6,55,30.08,10.0,WNW,12.7,-,N/A,,Scattered Clouds,300,2013-11-02 17:55:00
1:55 PM,60.8,44.6,55,30.08,10.0,West,12.7,-,N/A,,Scattered Clouds,280,2013-11-02 18:55:00
2:55 PM,59.0,42.8,55,30.08,10.0,NNW,11.5,-,N/A,,Mostly Cloudy,340,2013-11-02 19:55:00
3:55 PM,57.2,42.8,59,30.10,10.0,WNW,10.4,-,N/A,,Mostly Cloudy,300,2013-11-02 20:55:00
4:55 PM,57.2,42.8,59,30.11,10.0,NW,6.9,-,N/A,,Mostly Cloudy,310,2013-11-02 21:55:00
5:55 PM,53.6,39.2,58,30.13,10.0,NW,5.8,-,N/A,,Scattered Clouds,310,2013-11-02 22:55:00
6:55 PM,51.8,39.2,62,30.15,10.0,NNW,4.6,-,N/A,,Partly Cloudy,330,2013-11-02 23:55:00
7:55 PM,48.2,39.2,71,30.17,10.0,NW,3.5,-,N/A,,Clear,320,2013-11-03 00:55:00
8:55 PM,46.4,41.0,81,30.19,10.0,Calm,Calm,-,N/A,,Clear,0,2013-11-03 01:55:00
9:55 PM,42.8,41.0,93,30.20,10.0,North,3.5,-,N/A,,Clear,10,2013-11-03 02:55:00
10:55 PM,42.8,42.8,100,30.21,10.0,Calm,Calm,-,N/A,,Clear,0,2013-11-03 03:55:00
11:55 PM,41.0,39.2,93,30.21,10.0,Calm,Calm,-,N/A,,Clear,0,2013-11-03 04:55:00